Araxos, Greece

5:12 AM EET on March 25, 2017 (GMT +0200)
Araxos Air Base

Weather History for LGRX - January, 2014

Change the Weather History Date:

Tuesday, January 7, 2014

  Actual Average Record
Temperature  
Mean Temperature 57 °F -  
Max Temperature 64 °F 55 °F 66 °F (2003)
Min Temperature 50 °F 40 °F 26 °F (2002)
Degree Days  
Heating Degree Days 8    
Growing Degree Days 7 (Base 50)    
Moisture  
Dew Point 47 °F    
Average Humidity 66    
Maximum Humidity 94    
Minimum Humidity 49    
Precipitation  
Precipitation 0.00 in - - ()
Sea Level Pressure  
Sea Level Pressure 30.15 in    
Wind  
Wind Speed 9 mph ()    
Max Wind Speed 16 mph    
Max Gust Speed -    
Visibility 6.2 miles    
Events      
Averages and records for this station are not official NWS values.
T = Trace of Precipitation, MM = Missing Value Source: Averaged Metar Reports

Daily Weather History Graph

Daily Weather History Graph

Search for Another Location

Airport or City:

Trip Planner

Search our weather history database for the weather conditions in past years. The results will help you decide how hot, cold, wet, or windy it might be!

Date:

Astronomy

Jan. 07, 2014 Rise Set
Actual Time 7:51 AM EET 5:30 PM EET
Civil Twilight 7:21 AM EET 5:59 PM EET
Nautical Twilight 6:49 AM EET 6:32 PM EET
Astronomical Twilight 6:17 AM EET 7:04 PM EET
Moon 11:36 AM EET (1/7) No Moon Set
Length of Visible Light 10h 37m
Length of Day
9h 39m
Waxing Crescent, 42% of the Moon is Illuminated
Jan 7
Waxing Crescent
Jan 8
First Quarter
Jan 16
Full
Jan 24
Last Quarter
Jan 30
New

Hourly Weather History & Observations

Time (EET) Temp. Dew Point Humidity Pressure Visibility Wind Dir Wind Speed Gust Speed Precip Events Conditions
12:50 AM 50.0 °F 48.2 °F 94% 30.09 in 6.2 mi Calm Calm - N/A   Overcast
2:50 AM 57.2 °F 50.0 °F 77% 30.09 in 6.2 mi East 6.9 mph - N/A   Overcast
4:50 AM 57.2 °F 48.2 °F 72% 30.09 in 6.2 mi NE 15.0 mph - N/A   Mostly Cloudy
5:20 AM 57.2 °F 48.2 °F 72% 30.09 in 6.2 mi NE 16.1 mph - N/A   Mostly Cloudy
5:50 AM 57.2 °F 48.2 °F 72% 30.09 in 6.2 mi NE 15.0 mph - N/A   Mostly Cloudy
6:20 AM 57.2 °F 48.2 °F 72% 30.09 in 6.2 mi NE 16.1 mph - N/A   Scattered Clouds
6:50 AM 57.2 °F 46.4 °F 67% 30.12 in 6.2 mi NE 16.1 mph - N/A   Scattered Clouds
7:20 AM 57.2 °F 46.4 °F 67% 30.12 in 6.2 mi NE 13.8 mph - N/A   Scattered Clouds
7:50 AM 57.2 °F 46.4 °F 67% 30.12 in 6.2 mi NE 11.5 mph - N/A   Scattered Clouds
8:20 AM 57.2 °F 46.4 °F 67% 30.15 in 6.2 mi NE 12.7 mph - N/A   Partly Cloudy
8:50 AM 57.2 °F 46.4 °F 67% 30.15 in 6.2 mi ENE 8.1 mph - N/A   Partly Cloudy
9:20 AM 57.2 °F 46.4 °F 67% 30.15 in 6.2 mi ENE 4.6 mph - N/A   Partly Cloudy
9:50 AM 59.0 °F 46.4 °F 63% 30.18 in 6.2 mi NE 4.6 mph - N/A   Partly Cloudy
10:20 AM 59.0 °F 46.4 °F 63% 30.18 in 6.2 mi NE 9.2 mph - N/A   Partly Cloudy
10:50 AM 60.8 °F 48.2 °F 63% 30.18 in 6.2 mi NE 11.5 mph - N/A   Partly Cloudy
11:20 AM 60.8 °F 48.2 °F 63% 30.18 in 6.2 mi NE 11.5 mph - N/A   Partly Cloudy
11:50 AM 60.8 °F 46.4 °F 59% 30.15 in 6.2 mi NNE 13.8 mph - N/A   Partly Cloudy
12:20 PM 62.6 °F 46.4 °F 55% 30.15 in 6.2 mi NNE 13.8 mph - N/A   Partly Cloudy
12:50 PM 62.6 °F 46.4 °F 55% 30.15 in 6.2 mi NNE 12.7 mph - N/A   Scattered Clouds
1:20 PM 62.6 °F 46.4 °F 55% 30.15 in 6.2 mi NE 9.2 mph - N/A   Scattered Clouds
1:50 PM 62.6 °F 46.4 °F 55% 30.15 in 6.2 mi NE 11.5 mph - N/A   Mostly Cloudy
2:20 PM 62.6 °F 46.4 °F 55% 30.15 in 6.2 mi NE 9.2 mph - N/A   Scattered Clouds
2:50 PM 64.4 °F 44.6 °F 49% 30.15 in 6.2 mi NNE 5.8 mph - N/A   Partly Cloudy
3:20 PM 64.4 °F 46.4 °F 52% 30.15 in 6.2 mi NNE 9.2 mph - N/A   Partly Cloudy
3:50 PM 62.6 °F 44.6 °F 52% 30.15 in 6.2 mi NNE 10.4 mph - N/A   Partly Cloudy
4:20 PM 62.6 °F 46.4 °F 55% 30.15 in 6.2 mi NE 8.1 mph - N/A   Partly Cloudy
4:50 PM 60.8 °F 46.4 °F 59% 30.18 in 6.2 mi NNE 6.9 mph - N/A   Partly Cloudy
5:20 PM 59.0 °F 46.4 °F 63% 30.18 in 6.2 mi NE 6.9 mph - N/A   Partly Cloudy
5:50 PM 59.0 °F 46.4 °F 63% 30.18 in - NE 6.9 mph - N/A   Clear
6:20 PM 55.4 °F 46.4 °F 72% 30.18 in - NNE 4.6 mph - N/A   Clear
6:50 PM 57.2 °F 46.4 °F 67% 30.21 in - NE 6.9 mph - N/A   Clear
7:50 PM 57.2 °F 46.4 °F 67% 30.21 in - NE 6.9 mph - N/A   Clear
8:50 PM 55.4 °F 48.2 °F 77% 30.21 in - NE 6.9 mph - N/A   Clear
9:50 PM 55.4 °F 48.2 °F 77% 30.21 in - NE 6.9 mph - N/A   Clear
10:50 PM 55.4 °F 48.2 °F 77% 30.21 in - ENE 4.6 mph - N/A   Clear
11:50 PM 53.6 °F 48.2 °F 82% 30.21 in - ENE 4.6 mph - N/A   Clear